Simultaneous Nadir Overpasses (SNOs) Predictions

Prediction of SNOs between NOAA-19 and NPP Satellite Orbit:

Table of predicted SNOs for the next 14.0 days since TLE Epoch: 6/23/2024
Index Date (NOAA-19) Time (NOAA-19) Lat,Lon (NOAA-19) SZA (NOAA-19 ) Date (NPP) Time (NPP) Lat,Lon (NPP) SZA (NPP ) Distance(km) Time Diff (sec)
1 07/06/2024 08:00:50 -72.66,-130.20 129.67 07/06/2024 08:02:00 -72.69,-128.60 129.75 53.08 70
2 07/06/2024 08:51:44 73.03, 37.87 50.65 07/06/2024 08:52:53 73.05, 37.96 50.64 3.56 69
3 07/06/2024 09:42:40 -73.05,-154.83 129.33 07/06/2024 09:43:37 -73.05,-154.72 129.36 3.32 57
4 07/06/2024 10:33:41 73.08, 12.48 50.70 07/06/2024 10:34:24 73.10, 12.48 50.71 2.43 43
5 07/06/2024 11:24:37 -73.09, 179.79 129.29 07/06/2024 11:25:08 -73.10, 179.79 129.29 0.72 31
6 07/06/2024 12:15:38 73.12, -12.91 50.74 07/06/2024 12:15:54 73.10, -12.90 50.71 2.49 16
7 07/06/2024 13:06:34 -73.14, 154.40 129.24 07/06/2024 13:06:39 -73.15, 154.31 129.23 3.26 5
8 07/06/2024 13:57:35 73.17, -38.29 50.79 07/06/2024 13:57:25 73.15, -38.38 50.78 3.39 10
9 07/06/2024 14:48:32 -73.13, 128.90 129.24 07/06/2024 14:48:09 -73.15, 128.93 129.22 2.36 23
10 07/06/2024 15:39:33 73.16, -63.79 50.79 07/06/2024 15:38:55 73.15, -63.76 50.79 1.59 38
11 07/06/2024 16:30:29 -73.18, 103.51 129.20 07/06/2024 16:29:39 -73.15, 103.55 129.21 3.11 50
12 07/06/2024 17:21:30 73.21, -89.18 50.84 07/06/2024 17:20:26 73.20, -89.25 50.85 2.19 64
13 07/06/2024 18:12:25 -73.27, 78.23 129.11 07/06/2024 18:11:11 -73.25, 77.96 129.09 9.09 74
14 07/06/2024 19:03:15 73.84,-113.15 51.39 07/06/2024 19:02:08 73.80,-116.00 51.53 88.43 67



Historial Predications of SNOs between NOAA-19 and NPP
